weather.gov     
National Weather Service

Terminal Aerodrome Forecast
NWS Homepage
This page is being discontinued on March 12, 2014.
The same data is available at this site. Please update your bookmarks.
Thank you, and we apologize for the inconvenience.
Please send an email to SR-SRH.Webmaster@noaa.gov with any concerns.


Current Version
Previous Version:    01  02  03  04  05  06  07  08  09  10  11  12  13  14  15  16  17  18  19  20  21  22  23  24  25  26  27  
[Printable]
856
FTUS44 KSHV 011100
TAFLFK
TAF
KLFK 011138Z 0112/0212 28006KT 6SM BR OVC004
     FM011600 31005KT P6SM OVC010
     FM011900 33006KT P6SM OVC018
     FM012200 33005KT P6SM BKN025
     FM020300 01004KT P6SM BKN015
     FM020900 02003KT 5SM BR OVC009=


U.S. Dept. of Commerce
NOAA National Weather Service
1325 East West Highway
Silver Spring, MD 20910
E-mail: w-nws.webmaster@noaa.gov
Page last modified: May 16, 2007
NATIONAL WEATHER SERVICE: for Safety, for Work, for Fun - FOR LIFE